Torna al catalogo

SCOUT B DEB

LostUNKNOWN
NORAD 29179·DEBRIS·🇺🇸 United States

Lanciato Aug 10, 1965 da Wallops Flight Facility

Loading…

Prossimi Passaggi (prossime 24 ore)

TLE

ObsoletoSource: Space-Track

Epoca: Dec 31, 2017, 17:56 UTC

1 29179U 65063AD  17365.74742390 -.00000115  00000-0 -56996-3 0  9993
2 29179  69.2247 115.0130 0757017  27.5610 336.3469 11.84250357545025

Traccia SCOUT B DEB in tempo reale con AllMySat

Download on the App Store